Probability
15 13 8 3 1 0 0 0 0 0 0 0 0 0 0 0 0 0 0 0 0 0 0 0 0 0 0 0 0 0 0 0 0 0 0 0 0 0 0 0 0 0 0 0 0 0 0 0 0
9 8 5 2 0 0 0 0 0 0 0 0 0 0 0 0 0 0 0 0 0 0 0 0 0 0 0 0 0 0 0 0 0 0 0 0 0 0 0 0 0 0 0 0 0 0 0 0 0
4 4 3 1 0 0 0 0 0 0 0 0 0 0 0 0 0 0 0 0 0 0 0 0 0 0 0 0 0 0 0 0 0 0 0 0 0 0 0 0 0 0 0 0 0 0 0 0 0
2 2 1 0 0 0 0 0 0 0 0 0 0 0 0 0 0 0 0 0 0 0 0 0 0 0 0 0 0 0 0 0 0 0 0 0 0 0 0 0 0 0 0 0 0 0 0 0 0
0 0 0 0 0 0 0 0 0 0 0 0 0 0 0 0 0 0 0 0 0 0 0 0 0 0 0 0 0 0 0 0 0 0 0 0 0 0 0 0 0 0 0 0 0 0 0 0 0
0 0 0 0 0 0 0 0 0 0 0 0 0 0 0 0 0 0 0 0 0 0 0 0 0 0 0 0 0 0 0 0 0 0 0 0 0 0 0 0 0 0 0 0 0 0 0 0 0
0 0 0 0 0 0 0 0 0 0 0 0 0 0 0 0 0 0 0 0 0 0 0 0 0 0 0 0 0 0 0 0 0 0 0 0 0 0 0 0 0 0 0 0 0 0 0 0 0
0 0 0 0 0 0 0 0 0 0 0 0 0 0 0 0 0 0 0 0 0 0 0 1 1 0 0 0 0 0 0 0 0 0 0 0 0 0 0 0 0 0 0 0 0 0 0 0 0
0 0 0 0 0 0 0 0 0 0 0 0 0 0 0 0 0 0 0 0 0 0 0 1 2 1 0 0 0 0 0 0 0 0 0 0 0 0 0 0 0 0 0 0 0 0 0 0 0
0 0 0 0 0 0 0 0 0 0 0 0 0 0 0 0 0 0 0 0 0 0 0 1 2 1 0 0 0 0 0 0 0 0 0 0 0 0 0 0 0 0 0 0 0 0 0 0 0
0 0 0 0 0 0 0 0 0 0 0 0 0 0 0 0 0 0 0 0 0 0 0 1 1 1 0 1 2 1 0 0 0 0 0 0 0 0 0 0 0 0 0 0 0 0 0 0 0
0 0 0 0 0 0 0 0 0 0 0 0 0 0 0 0 0 1 0 0 0 0 0 0 1 1 0 2 4 3 1 1 1 0 0 0 0 0 0 0 0 0 0 0 0 0 0 0 0
0 0 0 0 0 0 0 0 0 0 0 0 0 0 0 0 0 0 0 0 0 0 0 0 1 1 1 4 6 5 4 3 2 1 0 0 0 0 0 0 0 0 0 0 0 0 0 0 0
0 0 0 0 0 0 0 0 0 0 0 0 0 0 1 1 1 0 0 0 0 0 0 0 0 0 1 4 6 7 6 5 4 4 2 0 0 0 0 0 0 0 0 0 0 0 0 0 0
0 0 0 0 0 0 0 0 0 0 0 0 1 1 3 3 2 1 0 0 0 1 2 2 1 0 1 4 9 11 10 7 7 7 4 1 0 0 0 0 0 0 0 0 0 0 0 0 0
0 0 0 0 0 0 0 0 0 1 0 0 1 2 2 3 3 2 2 3 4 4 5 7 7 6 5 11 22 25 20 16 16 14 7 2 0 0 0 0 0 0 0 0 0 0 0 0 0
0 0 0 0 0 0 0 0 0 0 0 0 1 1 1 3 5 5 6 9 11 11 10 12 17 20 21 31 47 49 40 34 30 23 14 5 1 1 2 1 1 1 1 0 0 1 1 1 0
0 0 0 0 0 0 0 0 0 0 0 0 0 1 2 3 6 7 10 15 19 20 19 20 28 38 49 63 74 75 65 56 48 36 24 12 6 7 7 4 3 3 2 1 0 1 2 1 1
0 0 0 0 0 0 0 0 0 0 0 0 1 3 4 5 6 8 12 19 26 30 32 34 40 53 71 85 91 89 82 72 63 50 35 25 20 19 16 11 8 6 5 3 2 2 2 1 0
0 0 0 0 0 0 0 0 0 0 0 0 2 5 7 7 8 9 14 24 33 39 44 48 53 62 77 91 94 91 84 77 72 60 46 38 35 30 24 18 13 11 9 6 4 3 1 0 0
0 0 0 0 0 0 0 0 0 1 1 0 1 5 8 10 10 12 18 28 37 44 50 55 59 65 77 89 92 87 81 77 75 68 57 48 43 35 26 19 16 13 9 6 4 2 1 0 0
0 0 0 0 0 0 0 0 1 2 2 1 1 3 6 9 11 13 18 24 31 40 48 54 60 67 76 84 87 85 82 78 74 68 60 50 41 33 24 19 17 12 6 2 1 0 0 0 0
0 0 0 0 0 0 0 0 1 3 2 1 1 3 5 6 9 11 12 15 19 28 39 46 52 61 70 78 82 83 79 73 65 58 52 44 34 27 24 22 19 12 5 1 0 0 0 0 0
0 0 0 0 0 0 0 0 1 2 1 0 1 2 3 4 6 7 7 8 9 15 26 35 40 47 57 65 71 73 68 60 52 45 39 32 26 21 19 20 18 12 6 2 0 0 0 0 0
0 0 0 0 0 0 0 0 0 0 0 0 0 1 2 2 3 4 5 6 7 10 16 23 27 33 40 46 50 52 51 46 39 33 28 23 20 16 13 12 12 10 7 3 1 1 0 0 0
0 0 0 0 0 0 0 0 0 0 0 0 0 0 0 1 1 2 4 6 7 6 8 12 16 21 24 26 27 29 32 31 27 22 19 16 15 13 9 6 5 6 5 4 3 2 1 1 0
0 0 0 0 0 0 0 0 0 0 0 0 0 0 0 0 0 1 3 4 4 2 2 4 7 10 11 10 10 11 15 16 15 14 12 11 11 11 8 4 2 2 3 4 4 3 2 1 1
0 0 0 0 0 0 0 0 0 0 0 0 0 0 0 0 0 0 1 1 1 0 0 1 3 4 4 3 2 3 5 7 8 8 8 7 7 8 7 4 1 0 1 2 2 1 1 1 0
0 0 0 0 0 0 0 0 0 0 0 0 0 0 0 0 0 0 0 0 0 0 0 0 1 2 1 1 0 1 2 4 4 4 4 4 3 4 4 3 1 0 0 0 0 0 0 0 0
0 0 0 0 0 0 0 0 0 0 0 0 0 0 0 0 0 0 0 0 0 0 0 0 1 1 0 0 0 0 1 3 3 2 1 1 1 1 1 1 0 0 0 0 0 0 0 0 0
Wind_Speed
13 11 8 3 3 1 10 9 9 8 9 8 7 6 10 13 9 8 6 12 18 17 15 13 14 13 12 11 11 10 10 10 10 10 10 10 9 9 9 9 9 9 8 7 7 6 6 6 6
12 8 4 3 2 5 9 8 9 10 8 5 7 10 11 13 12 10 7 13 18 17 14 13 14 13 12 11 10 10 10 10 10 10 10 9 9 9 9 9 9 8 8 8 7 7 6 6 5
12 9 4 3 4 8 9 8 7 9 8 8 8 12 11 8 11 9 10 15 16 15 14 15 14 13 12 11 10 10 10 10 10 9 9 9 8 8 8 8 8 8 8 8 7 7 6 5 5
7 4 4 1 8 8 7 7 5 8 9 9 9 10 12 9 8 13 13 15 16 14 14 14 14 13 12 11 10 10 10 10 9 9 9 9 8 8 8 8 8 8 8 8 7 6 6 5 4
4 4 3 2 8 8 8 7 6 8 9 9 11 14 11 11 13 14 11 13 15 14 15 14 14 13 12 11 10 10 10 9 9 9 9 8 8 8 8 7 8 7 7 7 7 6 6 5 4
3 3 2 3 7 7 7 5 7 8 10 10 10 13 10 11 11 11 11 11 14 14 15 14 14 12 11 11 11 10 10 9 9 9 9 8 8 7 7 7 7 7 6 6 6 5 5 5 4
5 4 1 3 5 6 7 7 9 9 12 10 8 12 11 12 10 11 11 11 14 15 15 13 12 11 11 11 11 10 10 10 9 9 9 8 8 7 7 7 7 6 5 5 4 4 4 4 4
4 5 2 2 5 6 5 5 8 8 9 8 11 10 9 12 12 11 10 10 12 13 14 14 13 12 11 9 11 11 10 10 9 9 9 8 8 8 8 8 7 6 5 4 3 3 3 3 3
4 4 4 5 4 4 4 4 5 2 6 9 11 12 13 13 12 10 9 8 9 10 12 12 13 12 11 11 12 10 10 9 9 8 9 8 6 7 7 8 9 7 5 4 4 4 4 4 4
4 2 2 3 5 4 4 5 5 3 7 7 9 11 12 10 10 9 8 9 9 10 11 11 12 11 10 9 9 7 7 7 7 7 8 6 6 5 7 11 10 8 6 6 6 6 6 5 4
3 1 0 3 7 5 3 3 4 6 6 7 5 8 10 9 8 8 9 8 9 9 9 11 11 10 9 6 8 5 4 5 7 8 9 7 5 5 6 5 5 5 7 5 5 6 5 6 4
3 3 3 3 5 5 5 3 4 6 6 7 5 3 7 8 8 8 7 7 8 8 8 8 11 11 10 9 7 7 5 5 5 6 8 6 3 4 6 6 7 6 5 5 5 5 6 6 6
4 2 2 2 3 5 5 3 2 4 5 6 5 2 4 6 6 7 6 6 7 8 8 7 8 10 10 9 6 7 6 6 6 5 6 7 4 3 4 4 5 5 4 4 4 4 3 1 2
4 4 6 5 5 5 5 4 1 3 4 5 4 5 5 2 1 3 4 3 5 7 10 8 8 8 9 8 7 6 6 5 4 4 5 7 5 3 3 3 3 2 3 4 3 2 3 1 3
6 9 9 7 6 2 3 4 2 3 3 5 6 7 6 5 4 3 2 1 2 4 7 9 8 8 8 8 8 6 5 6 4 4 5 7 6 5 3 2 4 2 2 3 2 1 2 2 3
10 10 8 3 3 2 5 2 5 3 4 5 5 6 5 6 7 8 8 6 5 2 3 6 8 8 8 7 7 5 5 5 5 5 4 5 7 6 4 2 3 4 3 2 2 1 1 2 2
6 6 5 1 1 3 5 1 4 2 3 4 5 5 5 7 9 10 10 9 8 6 5 4 7 8 7 6 5 5 5 5 4 4 4 3 4 5 3 3 2 3 3 2 2 2 1 1 1
10 9 9 6 2 4 6 3 3 4 4 4 5 6 8 9 10 11 11 10 9 8 7 6 4 7 7 5 5 4 4 4 4 4 4 3 2 3 4 3 1 1 3 2 1 1 1 1 1
11 12 12 9 5 6 8 7 1 5 5 5 7 8 10 10 11 11 11 10 10 8 8 8 6 4 5 5 5 5 4 3 3 3 3 3 3 3 4 3 1 2 2 2 2 1 1 1 0
12 13 12 9 9 9 10 10 3 6 8 9 10 11 11 11 11 10 10 11 11 10 9 8 8 5 4 5 6 5 5 4 3 3 3 4 4 4 3 3 2 1 1 1 0 1 1 1 1
12 10 11 12 13 11 12 10 4 6 10 11 11 11 11 11 12 12 11 10 10 10 9 8 7 6 3 4 5 6 4 4 3 4 3 3 4 5 3 3 3 1 1 1 1 1 2 2 2
10 11 13 14 12 9 9 7 5 8 13 15 15 13 13 14 14 11 11 11 11 11 11 10 7 5 3 1 5 8 6 5 5 4 4 3 4 4 4 3 3 3 2 2 3 2 2 3 3
10 14 15 15 12 12 10 8 6 11 13 14 14 15 14 14 14 12 11 11 11 11 11 10 9 7 5 2 2 5 4 4 3 3 5 4 3 4 4 3 3 3 3 4 4 4 4 4 4
11 15 15 12 8 6 6 5 7 10 14 16 16 15 14 14 13 13 12 10 10 10 10 9 8 7 6 4 3 3 5 5 5 4 4 4 3 2 3 4 3 4 4 5 6 6 7 6 6
13 12 5 3 1 3 8 7 7 11 14 15 16 16 15 14 12 12 12 11 10 11 11 9 8 8 6 5 5 4 4 5 5 4 3 3 2 2 3 4 4 4 5 6 7 7 7 7 7
11 11 7 6 6 6 6 6 5 11 13 13 14 14 14 14 12 11 11 10 10 11 11 10 9 8 8 7 6 5 4 2 2 3 3 3 3 3 4 4 5 6 6 6 6 5 5 5 7
9 9 7 6 6 4 4 6 4 15 17 17 17 17 16 15 13 12 11 10 11 11 11 10 9 8 8 7 6 4 3 2 1 1 2 2 3 4 5 5 5 4 5 4 4 3 4 4 4
8 8 5 5 5 4 4 6 8 16 17 17 17 16 15 14 13 12 11 11 10 10 10 10 10 8 7 6 4 4 3 2 1 0 2 3 2 2 3 4 4 4 4 3 2 2 2 3 2
10 9 7 4 3 4 4 4 5 9 11 13 14 13 13 13 12 12 11 10 10 10 11 11 11 10 9 8 6 5 4 4 3 2 2 2 2 2 3 3 3 4 4 4 4 3 3 3 3
8 8 7 5 5 4 3 3 4 5 7 8 9 10 10 10 10 10 10 10 9 9 9 10 10 10 8 7 7 6 5 5 4 3 2 2 2 2 3 3 3 3 3 4 5 4 4 4 4
Wind_Direction
280 256 236 252 264 114 65 61 59 44 43 46 34 31 59 59 52 87 146 144 125 125 131 140 140 139 137 135 133 129 126 123 119 116 111 106 100 94 89 86 83 81 79 78 75 78 81 84 84
287 289 259 242 272 77 72 65 61 54 41 37 51 39 57 68 81 104 140 121 126 129 139 140 142 143 142 141 139 136 133 129 124 121 117 112 106 100 95 91 86 81 78 76 74 76 80 84 84
264 264 263 244 55 72 79 72 72 67 50 36 58 64 51 58 96 120 126 130 131 133 136 133 146 146 146 147 146 144 141 138 133 129 125 120 114 108 102 96 90 84 79 76 76 75 76 82 84
275 264 246 265 76 73 88 96 76 73 61 49 55 72 70 52 85 119 133 142 131 132 130 138 149 150 152 154 153 152 149 146 143 139 134 129 123 117 110 104 96 88 82 79 76 77 76 79 81
251 263 289 72 85 83 73 72 75 75 66 56 71 83 82 76 95 120 142 138 135 135 132 144 151 155 158 159 159 159 157 155 152 148 142 137 132 125 120 112 104 96 87 81 77 76 72 75 81
278 277 358 60 80 73 77 64 54 55 60 54 71 93 96 110 116 135 144 144 141 137 138 144 155 159 162 164 165 165 164 163 161 156 151 147 141 136 129 120 113 106 95 88 84 78 74 74 83
304 302 232 122 95 74 56 43 47 54 55 36 47 91 111 121 131 147 152 158 146 144 142 147 158 164 168 170 172 172 171 171 168 164 161 157 151 147 140 133 128 120 113 107 101 93 88 88 95
302 292 308 83 92 74 51 53 50 43 69 50 41 70 114 129 149 153 158 160 150 150 151 158 161 166 170 174 179 178 177 177 175 171 170 167 164 164 160 154 144 139 136 132 130 128 126 129 140
272 291 3 20 66 74 45 48 72 35 69 74 67 70 103 131 150 154 157 161 157 156 156 162 162 169 169 172 173 176 182 183 179 179 180 177 185 182 181 167 151 157 158 164 175 186 182 176 189
248 349 12 350 28 50 33 24 8 35 55 63 82 98 117 140 152 160 165 172 165 166 166 164 166 167 171 173 156 176 182 176 192 187 180 198 209 186 162 146 158 167 176 189 206 215 214 212 206
279 355 47 8 26 8 359 28 11 17 38 30 51 116 137 151 163 175 180 180 170 175 176 170 169 168 168 159 156 173 174 173 201 199 183 202 198 154 139 157 161 178 190 204 205 218 224 218 209
302 344 352 12 28 328 328 346 33 36 23 9 18 110 145 166 175 185 188 177 170 173 174 178 172 168 172 171 164 173 175 184 196 195 192 191 192 190 169 173 173 183 194 200 193 216 216 209 195
287 316 306 319 297 286 297 314 52 37 15 354 10 41 150 173 176 186 189 180 176 169 169 190 181 177 178 174 165 177 175 182 192 182 191 185 180 212 179 183 170 187 177 178 217 217 178 176 93
342 320 286 274 266 269 279 279 198 49 6 351 8 29 29 40 227 180 171 197 186 174 173 187 193 189 180 174 176 178 174 174 179 170 190 182 174 203 178 189 149 183 164 173 205 206 133 106 76
278 268 261 243 247 257 298 274 77 39 7 12 12 30 20 16 2 358 34 237 223 191 180 181 193 196 189 182 177 171 169 169 173 169 204 191 169 189 174 187 146 187 196 178 191 180 128 129 124
258 255 257 239 230 222 251 257 77 28 13 27 16 24 21 11 2 9 10 357 341 319 219 186 191 196 194 186 169 167 172 166 166 166 204 207 171 183 170 167 155 186 191 155 121 45 101 126 144
274 293 308 323 272 322 292 42 126 64 16 28 27 19 20 21 12 11 6 353 339 325 301 220 192 196 195 183 165 163 169 162 161 162 175 218 171 167 147 149 165 183 155 139 158 168 166 143 136
336 329 316 315 337 309 296 281 158 104 53 23 20 16 24 21 9 7 1 348 334 324 314 298 230 199 188 177 173 159 163 158 153 157 160 177 144 135 120 125 206 207 137 136 142 137 113 89 131
315 304 300 306 341 322 304 302 197 108 73 30 23 18 19 11 3 6 354 347 338 333 323 312 293 232 191 178 171 162 166 154 139 140 144 143 126 110 114 129 116 24 88 136 168 140 145 139 169
312 308 311 323 347 328 310 302 313 90 65 41 23 16 15 2 357 1 353 353 350 346 336 320 313 282 213 177 166 162 157 153 139 131 123 117 110 96 100 108 105 66 50 85 108 88 114 218 213
320 332 335 326 320 301 290 281 308 81 56 39 24 13 8 2 357 359 358 357 352 347 339 326 317 310 289 175 156 147 139 142 149 146 143 139 132 130 124 132 139 153 170 223 234 201 181 219 267
318 342 325 309 303 295 293 288 39 56 35 24 12 1 5 1 353 357 360 1 359 355 351 345 337 333 323 203 166 161 162 173 177 158 148 139 128 131 136 150 159 160 177 219 232 229 215 213 235
316 310 293 281 276 279 290 285 59 34 21 6 0 354 357 357 351 354 1 1 360 359 359 356 358 359 352 347 167 162 158 152 140 145 146 144 137 136 136 150 163 177 184 208 223 224 223 215 219
315 306 285 257 253 268 343 343 42 20 4 355 352 350 354 353 352 354 360 2 360 2 1 2 6 9 9 20 65 114 136 139 148 163 162 160 156 156 167 165 173 196 200 207 219 218 223 221 223
343 339 335 351 353 18 19 49 49 14 6 357 348 348 351 352 354 356 359 1 5 5 4 7 14 17 21 37 58 71 111 136 155 161 171 168 156 179 192 181 175 199 208 210 214 217 219 219 221
347 1 1 337 338 340 25 61 54 12 4 358 354 349 351 354 353 358 1 4 10 10 7 10 17 21 27 39 52 64 81 97 129 165 175 186 184 194 196 196 195 202 208 212 209 210 213 215 215
355 4 338 311 314 326 53 72 23 5 2 1 359 357 357 354 354 2 8 13 17 15 10 11 18 22 27 33 39 44 64 87 99 166 201 203 205 203 196 198 205 204 204 206 201 202 214 216 210
13 353 344 345 351 346 41 51 359 351 352 354 357 358 355 356 1 8 13 18 18 15 11 15 18 20 24 27 31 41 35 46 39 275 254 240 214 200 194 200 198 201 185 177 181 198 204 201 190
12 14 360 345 9 352 4 42 5 345 342 348 354 358 2 3 10 16 17 18 19 18 18 17 15 19 19 20 26 31 22 16 7 341 301 288 237 205 208 201 199 189 176 177 177 190 188 211 206
30 14 8 12 9 14 45 48 12 346 343 350 356 2 7 11 15 17 18 16 17 17 16 15 14 14 14 17 23 21 14 6 351 332 315 302 276 235 221 208 199 179 184 187 181 190 186 207 216